Drummond Island, MI

4:50 PM EDT on August 18, 2017 (GMT -0400)
Drummond Island

Weather History for KDRM - April, 2013

Change the Weather History Date:

Thursday, April 11, 2013

  Actual Average (KCIU) Record (KCIU)
Temperature  
Mean Temperature 30 °F -  
Max Temperature 34 °F 44 °F 68 °F (2006)
Min Temperature 25 °F 21 °F 15 °F (1979)
Degree Days  
Heating Degree Days 36    
Moisture  
Dew Point 16 °F    
Average Humidity 59    
Maximum Humidity 90    
Minimum Humidity 51    
Precipitation  
Precipitation 0.00 in - - ()
Sea Level Pressure  
Sea Level Pressure 30.10 in    
Wind  
Wind Speed 9 mph (ENE)    
Max Wind Speed 16 mph    
Max Gust Speed 31 mph    
Visibility 9 miles    
Events Snow    
Averages and records for this station are not official NWS values.
T = Trace of Precipitation, MM = Missing Value Source: NWS Daily Summary

Daily Weather History Graph

Daily Weather History Graph

Search for Another Location

Airport or City:

Trip Planner

Search our weather history database for the weather conditions in past years. The results will help you decide how hot, cold, wet, or windy it might be!

Date:

Astronomy

Apr. 11, 2013 Rise Set
Actual Time 6:55 AM EDT 8:17 PM EDT
Civil Twilight 6:24 AM EDT 8:48 PM EDT
Nautical Twilight 5:47 AM EDT 9:25 PM EDT
Astronomical Twilight 5:07 AM EDT 10:05 PM EDT
Moon 7:22 AM EDT (4/11) 9:56 PM EDT (4/11)
Length of Visible Light 14h 23m
Length of Day
13h 21m
New Moon, 2% of the Moon is Illuminated
Apr 11
New Moon
Apr 18
First Quarter
Apr 25
Full
May 2
Last Quarter
May 9
New

Hourly Weather History & Observations

Time (EDT) Temp. Windchill Dew Point Humidity Pressure Visibility Wind Dir Wind Speed Gust Speed Precip Events Conditions
12:15 AM 33.8 °F 28.6 °F 20.5 °F 58% 30.14 in 10.0 mi NE 5.8 mph - N/A   Clear
12:35 AM 34.2 °F 26.8 °F 20.5 °F 57% 30.13 in 10.0 mi NE 9.2 mph - N/A   Clear
12:55 AM 33.8 °F 28.6 °F 21.0 °F 60% 30.12 in 10.0 mi NE 5.8 mph - N/A   Clear
1:15 AM 32.9 °F 25.3 °F 20.8 °F 61% 30.13 in 10.0 mi NE 9.2 mph - N/A   Clear
1:35 AM 32.2 °F 25.0 °F 20.8 °F 63% 30.15 in 10.0 mi NE 8.1 mph - N/A   Clear
1:55 AM 32.0 °F 24.8 °F 20.3 °F 62% 30.16 in 10.0 mi NE 8.1 mph - N/A   Clear
2:14 AM 31.8 °F 24.6 °F 19.4 °F 60% 30.15 in 10.0 mi NE 8.1 mph - N/A   Clear
2:35 AM 31.1 °F 25.4 °F 19.2 °F 61% 30.14 in 10.0 mi NE 5.8 mph - N/A   Clear
2:55 AM 30.2 °F 22.6 °F 19.2 °F 64% 30.13 in 10.0 mi NE 8.1 mph - N/A   Clear
3:15 AM 30.0 °F 22.4 °F 19.0 °F 64% 30.13 in 10.0 mi NE 8.1 mph - N/A   Clear
3:35 AM 29.8 °F 22.2 °F 18.1 °F 62% 30.12 in 10.0 mi NE 8.1 mph 17.3 mph N/A   Clear
3:54 AM 29.5 °F 21.8 °F 18.1 °F 63% 30.12 in 10.0 mi NE 8.1 mph - N/A   Clear
4:15 AM 29.3 °F 19.6 °F 17.2 °F 61% 30.12 in 10.0 mi NE 11.5 mph 19.6 mph N/A   Clear
4:35 AM 28.9 °F 21.1 °F 17.2 °F 62% 30.12 in 10.0 mi NE 8.1 mph 17.3 mph N/A   Clear
4:55 AM 28.4 °F 21.2 °F 18.0 °F 65% 30.12 in 10.0 mi NE 6.9 mph - N/A   Clear
5:15 AM 28.0 °F 19.3 °F 17.1 °F 63% 30.13 in 10.0 mi NE 9.2 mph 16.1 mph N/A   Clear
5:35 AM 27.5 °F 18.6 °F 15.3 °F 60% 30.14 in 10.0 mi NE 9.2 mph 18.4 mph N/A   Clear
5:55 AM 27.3 °F 19.1 °F 14.5 °F 59% 30.16 in 10.0 mi ENE 8.1 mph - N/A   Clear
6:15 AM 27.0 °F 19.5 °F 14.0 °F 58% 30.16 in 10.0 mi ENE 6.9 mph - N/A   Clear
6:35 AM 26.6 °F 21.2 °F 14.5 °F 60% 30.16 in 10.0 mi ENE 4.6 mph - N/A   Clear
6:55 AM 26.2 °F 20.7 °F 13.8 °F 59% 30.16 in 10.0 mi ENE 4.6 mph - N/A   Clear
7:15 AM 26.1 °F 18.4 °F 13.5 °F 59% 30.16 in 10.0 mi NE 6.9 mph 17.3 mph N/A   Clear
7:35 AM 25.7 °F 15.1 °F 13.3 °F 59% 30.17 in 10.0 mi ENE 11.5 mph 17.3 mph N/A   Clear
7:55 AM 25.7 °F 18.0 °F 12.6 °F 58% 30.16 in 10.0 mi NE 6.9 mph 17.3 mph N/A   Clear
8:15 AM 25.7 °F 14.6 °F 12.4 °F 57% 30.15 in 10.0 mi ENE 12.7 mph 21.9 mph N/A   Clear
8:35 AM 25.5 °F 14.3 °F 11.8 °F 56% 30.13 in 10.0 mi NE 12.7 mph 21.9 mph N/A   Clear
8:55 AM 25.3 °F 13.6 °F 11.8 °F 57% 30.13 in 10.0 mi NE 13.8 mph 20.7 mph N/A   Clear
9:14 AM 25.3 °F 16.7 °F 12.2 °F 58% 30.15 in 10.0 mi ENE 8.1 mph 19.6 mph N/A   Clear
9:35 AM 25.7 °F 19.0 °F 12.7 °F 58% 30.19 in 10.0 mi ENE 5.8 mph - N/A   Clear
9:55 AM 26.2 °F 17.1 °F 12.7 °F 57% 30.17 in 10.0 mi NE 9.2 mph 19.6 mph N/A   Clear
10:15 AM 26.6 °F 17.5 °F 13.5 °F 58% 30.18 in 10.0 mi East 9.2 mph 16.1 mph N/A   Clear
10:35 AM 26.4 °F 16.6 °F 12.9 °F 57% 30.15 in 10.0 mi East 10.4 mph 18.4 mph N/A   Clear
10:55 AM 26.6 °F 15.2 °F 12.9 °F 56% 30.15 in 10.0 mi ENE 13.8 mph 20.7 mph N/A   Clear
11:15 AM 26.6 °F 18.2 °F 13.1 °F 57% 30.14 in 10.0 mi ENE 8.1 mph 20.7 mph N/A   Clear
11:35 AM 26.8 °F 15.4 °F 12.9 °F 56% 30.14 in 10.0 mi East 13.8 mph 20.7 mph N/A   Clear
11:55 AM 27.1 °F 16.9 °F 12.7 °F 55% 30.15 in 10.0 mi East 11.5 mph 21.9 mph N/A   Clear
12:15 PM 27.9 °F 19.1 °F 13.8 °F 56% 30.14 in 10.0 mi East 9.2 mph - N/A   Clear
12:35 PM 28.0 °F 18.1 °F 14.2 °F 56% 30.14 in 10.0 mi ENE 11.5 mph 19.6 mph N/A   Clear
1:15 PM 28.4 °F 19.1 °F 14.7 °F 57% 30.13 in 10.0 mi ENE 10.4 mph 17.3 mph N/A   Mostly Cloudy
1:35 PM 28.4 °F 18.5 °F 14.7 °F 57% 30.12 in 10.0 mi East 11.5 mph 18.4 mph N/A   Mostly Cloudy
1:55 PM 28.4 °F 19.1 °F 15.8 °F 59% 30.11 in 10.0 mi East 10.4 mph 23.0 mph N/A   Mostly Cloudy
2:15 PM 29.1 °F 20.6 °F 15.6 °F 57% 30.11 in 10.0 mi ENE 9.2 mph 20.7 mph N/A   Overcast
2:35 PM 29.7 °F 20.1 °F 16.3 °F 58% 30.09 in 10.0 mi East 11.5 mph 19.6 mph N/A   Overcast
2:55 PM 29.8 °F 21.5 °F 15.4 °F 55% 30.08 in 10.0 mi East 9.2 mph 20.7 mph N/A   Overcast
3:15 PM 30.2 °F 22.6 °F 14.9 °F 53% 30.09 in 10.0 mi East 8.1 mph 19.6 mph N/A   Overcast
3:35 PM 30.9 °F 21.2 °F 14.7 °F 51% 30.07 in 10.0 mi East 12.7 mph 24.2 mph N/A   Overcast
3:55 PM 30.6 °F 20.2 °F 14.9 °F 52% 30.07 in 10.0 mi East 13.8 mph 21.9 mph N/A   Overcast
4:15 PM 30.0 °F 20.5 °F 15.4 °F 55% 30.05 in 10.0 mi ENE 11.5 mph 24.2 mph N/A   Overcast
4:35 PM 30.2 °F 23.4 °F 16.2 °F 56% 30.05 in 10.0 mi ENE 6.9 mph 24.2 mph N/A   Overcast
4:55 PM 30.2 °F 21.9 °F 16.2 °F 56% 30.05 in 10.0 mi East 9.2 mph 24.2 mph N/A   Overcast
5:15 PM 30.7 °F 24.1 °F 16.3 °F 55% 30.04 in 10.0 mi East 6.9 mph 16.1 mph N/A   Overcast
5:35 PM 30.7 °F 22.6 °F 16.5 °F 56% 30.03 in 10.0 mi ENE 9.2 mph 20.7 mph N/A   Overcast
5:55 PM 31.1 °F 24.5 °F 16.2 °F 54% 30.05 in 10.0 mi East 6.9 mph 20.7 mph N/A   Overcast
6:15 PM 31.5 °F 23.5 °F 16.2 °F 53% 30.06 in 10.0 mi East 9.2 mph 17.3 mph N/A   Overcast
6:35 PM 31.8 °F 24.6 °F 16.0 °F 52% 30.05 in 10.0 mi East 8.1 mph 18.4 mph N/A   Overcast
6:55 PM 31.8 °F 23.3 °F 15.4 °F 51% 30.04 in 10.0 mi East 10.4 mph 18.4 mph N/A   Overcast
7:14 PM 31.8 °F 22.3 °F 15.8 °F 52% 30.03 in 10.0 mi East 12.7 mph 20.7 mph N/A   Overcast
7:35 PM 31.6 °F 22.1 °F 16.0 °F 52% 30.02 in 10.0 mi East 12.7 mph 19.6 mph N/A   Overcast
7:55 PM 31.5 °F 23.5 °F 16.7 °F 54% 30.01 in 10.0 mi East 9.2 mph 23.0 mph N/A   Overcast
8:15 PM 31.5 °F 22.9 °F 16.9 °F 55% 30.01 in 10.0 mi East 10.4 mph 20.7 mph N/A   Overcast
8:35 PM 31.5 °F 22.3 °F 16.2 °F 53% 30.01 in 10.0 mi East 11.5 mph 17.3 mph N/A   Overcast
8:55 PM 31.3 °F 21.6 °F 14.9 °F 51% 30.00 in 10.0 mi East 12.7 mph 19.6 mph N/A   Overcast
9:15 PM 31.1 °F 20.9 °F 15.1 °F 52% 30.01 in 10.0 mi East 13.8 mph 20.7 mph N/A   Overcast
9:35 PM 30.9 °F 19.8 °F 15.4 °F 53% 30.01 in 10.0 mi East 16.1 mph 21.9 mph N/A   Overcast
9:55 PM 30.6 °F 20.2 °F 16.0 °F 55% 30.02 in 10.0 mi East 13.8 mph 23.0 mph N/A   Overcast
10:15 PM 29.1 °F 19.4 °F 19.9 °F 69% 30.01 in 2.5 mi East 11.5 mph 28.8 mph N/A Snow Light Snow
10:35 PM 28.4 °F 17.0 °F 20.8 °F 73% 30.00 in 2.0 mi East 15.0 mph 31.1 mph N/A Snow Light Snow
10:54 PM 27.5 °F 18.6 °F 22.1 °F 80% 29.98 in 1.8 mi ENE 9.2 mph 24.2 mph N/A Snow Light Snow
11:15 PM 26.6 °F 15.7 °F 23.9 °F 90% 29.97 in 1.2 mi ENE 12.7 mph 25.3 mph N/A Snow Light Snow
11:35 PM 27.0 °F 17.3 °F 23.9 °F 88% 29.96 in 1.8 mi ENE 10.4 mph 23.0 mph N/A Snow Light Snow
11:55 PM 28.4 °F 20.4 °F 21.2 °F 74% 29.95 in 7.0 mi NE 8.1 mph 19.6 mph N/A Snow Light Snow